EW1088 Weather Reports


Display with metric or nautical units.
time (UTC)temp
F
wind
direction
speed
MPH
gust
MPH
rain 1hr
in
rain 24hr
in
rain mn
in
humidity
%
barometer
mb
20240623174126 68 158 3.0 6.0 0.00 0.00 0.00 54 1005.2
20240623173625 68 121 2.0 6.0 0.00 0.00 0.00 54 1005.2
20240623173128 68 114 1.0 4.0 0.00 0.00 0.00 56 1005.2
20240623172626 68 214 2.0 5.0 0.00 0.00 0.00 57 1005.2
20240623172126 67 120 2.0 5.0 0.00 0.00 0.00 57 1005.2
20240623171628 67 136 1.0 5.0 0.00 0.00 0.00 60 1005.3
20240623171623 67 146 2.0 5.0 0.00 0.00 0.00 60 1005.2
20240623170626 66 159 2.0 5.0 0.00 0.00 0.00 61 1005.3
20240623170622 67 126 1.0 3.0 0.00 0.00 0.00 61 1005.3
20240623165620 66 120 2.0 5.0 0.00 0.00 0.00 63 1005.3
20240623165120 66 116 2.0 4.0 0.00 0.00 0.00 63 1005.3
20240623164620 66 118 2.0 4.0 0.00 0.00 0.00 64 1005.3
20240623164117 65 137 1.0 5.0 0.00 0.00 0.00 65 1005.3
20240623163617 65 151 2.0 5.0 0.00 0.00 0.00 65 1005.4
20240623163116 65 139 2.0 5.0 0.00 0.00 0.00 66 1005.5
20240623162615 64 107 2.0 5.0 0.00 0.00 0.00 66 1005.5
20240623162116 64 147 1.0 4.0 0.00 0.00 0.00 65 1005.5
20240623161610 64 109 1.0 3.0 0.00 0.00 0.00 67 1005.4
20240623161110 63 109 2.0 5.0 0.00 0.00 0.00 68 1005.4
20240623160610 63 109 3.0 7.0 0.00 0.00 0.00 67 1005.5
20240623160110 63 11 3.0 7.0 0.00 0.00 0.00 67 1005.5
20240623155610 63 126 3.0 7.0 0.00 0.00 0.00 67 1005.5
20240623155110 63 93 3.0 7.0 0.00 0.00 0.00 65 1005.6
20240623154610 63 121 1.0 4.0 0.00 0.00 0.00 66 1005.6
20240623154113 63 85 1.0 5.0 0.00 0.00 0.00 68 1005.5
20240623154109 63 161 1.0 5.0 0.00 0.00 0.00 67 1005.6
20240623153716 62 85 2.0 5.0 0.00 0.00 0.00 69 1005.5
20240623152610 62 56 3.0 8.0 0.00 0.00 0.00 68 1005.6
20240623152109 62 6 3.0 8.0 0.00 0.00 0.00 68 1005.6
20240623151610 62 37 3.0 8.0 0.00 0.00 0.00 69 1005.6
20240623151110 61 25 3.0 8.0 0.00 0.00 0.00 70 1005.7
20240623150610 61 43 3.0 7.0 0.00 0.00 0.00 71 1005.7
20240623150110 60 64 3.0 7.0 0.00 0.00 0.00 72 1005.7
20240623145609 60 29 2.0 7.0 0.00 0.00 0.00 73 1005.8
20240623145109 60 41 2.0 6.0 0.00 0.00 0.00 74 1005.7
20240623144717 60 23 4.0 9.0 0.00 0.00 0.00 74 1005.7
20240623144613 60 63 3.0 9.0 0.00 0.00 0.00 74 1005.7
20240623144609 60 17 3.0 6.0 0.00 0.00 0.00 74 1005.7
20240623143109 60 24 4.0 8.0 0.00 0.00 0.00 74 1005.7
20240623142609 60 85 3.0 8.0 0.00 0.00 0.00 74 1005.7
20240623142109 60 60 2.0 8.0 0.00 0.00 0.00 74 1005.8
20240623141609 60 127 2.0 7.0 0.00 0.00 0.00 75 1005.8
20240623141109 60 67 2.0 5.0 0.00 0.00 0.00 75 1005.8
20240623140610 60 56 2.0 5.0 0.00 0.00 0.00 75 1005.8
20240623140110 60 24 2.0 5.0 0.00 0.00 0.00 76 1005.8
20240623135609 59 62 2.0 4.0 0.00 0.00 0.00 77 1005.8
20240623135110 59 64 2.0 6.0 0.00 0.00 0.00 78 1005.7
20240623134609 59 83 3.0 6.0 0.00 0.00 0.00 79 1005.7
20240623134109 58 66 2.0 6.0 0.00 0.00 0.00 81 1005.7
20240623133606 58 27 2.0 5.0 0.00 0.00 0.00 83 1005.7
20240623133109 57 50 2.0 5.0 0.00 0.00 0.00 85 1005.8
20240623133105 57 65 2.0 5.0 0.00 0.00 0.00 84 1005.8
20240623132104 56 37 2.0 5.0 0.00 0.00 0.00 87 1005.8
20240623131604 55 45 2.0 4.0 0.00 0.00 0.00 89 1005.8
20240623131059 55 73 2.0 4.0 0.00 0.00 0.00 90 1005.8
20240623130600 55 33 1.0 4.0 0.00 0.00 0.00 91 1005.9
20240623130555 54 120 0.0 2.0 0.00 0.00 0.00 90 1005.8
20240623130159 54 120 0.0 1.0 0.00 0.00 0.00 90 1005.8
20240623125053 55 120 0.0 1.0 0.00 0.00 0.00 90 1005.8
20240623124552 55 120 0.0 1.0 0.00 0.00 0.00 90 1005.8
20240623124050 55 120 0.0 1.0 0.00 0.00 0.00 90 1005.7
20240623123549 55 120 0.0 1.0 0.00 0.00 0.00 90 1005.7
20240623123049 55 120 0.0 1.0 0.00 0.00 0.00 89 1005.7
20240623122554 56 120 1.0 2.0 0.00 0.00 0.00 89 1005.8
20240623122550 55 120 1.0 2.0 0.00 0.00 0.00 89 1005.8
20240623121549 56 120 0.0 2.0 0.00 0.00 0.00 89 1005.7
20240623121050 56 120 0.0 1.0 0.00 0.00 0.00 89 1005.8
20240623120550 56 10 0.0 1.0 0.00 0.00 0.00 89 1005.8
20240623120048 56 10 1.0 3.0 0.00 0.00 0.00 89 1005.8
20240623115547 56 16 1.0 3.0 0.00 0.00 0.00 89 1005.7
20240623115049 55 16 1.0 3.0 0.00 0.00 0.00 89 1005.7
20240623114551 56 16 0.0 3.0 0.00 0.00 0.00 89 1005.7
20240623114546 56 46 0.0 0.0 0.00 0.00 0.00 88 1005.7
20240623113545 56 46 0.0 0.0 0.00 0.00 0.00 87 1005.7
20240623113043 56 46 0.0 0.0 0.00 0.00 0.00 87 1005.7
20240623112544 57 46 0.0 2.0 0.00 0.00 0.00 86 1005.7
20240623112141 57 46 1.0 3.0 0.00 0.00 0.00 87 1005.8
20240623112041 57 46 0.0 2.0 0.00 0.00 0.00 86 1005.7
20240623112036 57 46 1.0 2.0 0.00 0.00 0.00 87 1005.7
20240623110533 57 46 1.0 3.0 0.00 0.00 0.00 87 1005.8
20240623110136 57 46 1.0 3.0 0.00 0.00 0.00 86 1005.7
20240623110036 57 46 1.0 2.0 0.00 0.00 0.00 87 1005.9
20240623110032 57 46 2.0 3.0 0.00 0.00 0.00 86 1005.8
20240623104529 57 46 1.0 3.0 0.00 0.00 0.00 86 1005.7
20240623104029 57 46 1.0 3.0 0.00 0.00 0.00 86 1005.7
20240623103529 57 46 1.0 3.0 0.00 0.00 0.00 87 1005.7
20240623103027 57 46 0.0 3.0 0.00 0.00 0.00 87 1005.8
20240623102527 57 46 0.0 3.0 0.00 0.00 0.00 87 1005.7
20240623102030 57 46 0.0 2.0 0.00 0.00 0.00 87 1005.7
20240623102026 57 46 0.0 2.0 0.00 0.00 0.00 87 1005.7
20240623101025 57 46 1.0 3.0 0.00 0.00 0.00 87 1005.7
20240623100526 57 214 1.0 2.0 0.00 0.00 0.00 88 1005.7
20240623100522 57 46 1.0 3.0 0.00 0.00 0.00 88 1005.7
20240623095521 57 214 1.0 3.0 0.00 0.00 0.00 88 1005.7
20240623095021 57 214 0.0 3.0 0.00 0.00 0.00 89 1005.7
20240623094521 57 214 0.0 1.0 0.00 0.00 0.00 89 1005.7
20240623094020 57 214 0.0 1.0 0.00 0.00 0.00 89 1005.7
20240623093518 57 214 0.0 3.0 0.00 0.00 0.00 89 1005.7
20240623093017 57 214 0.0 3.0 0.00 0.00 0.00 88 1005.7
20240623092515 57 214 0.0 1.0 0.00 0.00 0.00 88 1005.6
20240623092510 58 214 0.0 1.0 0.00 0.00 0.00 88 1005.6
20240623092114 57 214 0.0 1.0 0.00 0.00 0.00 89 1005.7
20240623091007 58 214 1.0 2.0 0.00 0.00 0.00 88 1005.6
20240623090507 58 214 1.0 2.0 0.00 0.00 0.00 88 1005.6
20240623090005 58 214 0.0 1.0 0.00 0.00 0.00 87 1005.7
20240623085504 59 214 0.0 1.0 0.00 0.00 0.00 87 1005.6
20240623085003 59 214 0.0 1.0 0.00 0.00 0.00 86 1005.6
20240623084501 59 214 0.0 1.0 0.00 0.00 0.00 86 1005.6
20240623084000 60 214 0.0 2.0 0.00 0.00 0.00 86 1005.6
20240623083502 60 214 0.0 2.0 0.00 0.00 0.00 86 1005.5
20240623083001 60 214 0.0 2.0 0.00 0.00 0.00 86 1005.5
20240623082502 60 214 0.0 2.0 0.00 0.00 0.00 85 1005.5
20240623081957 60 214 0.0 0.0 0.00 0.00 0.00 84 1005.5
20240623081456 60 214 0.0 0.0 0.00 0.00 0.00 84 1005.5
20240623080957 61 214 0.0 0.0 0.00 0.00 0.00 83 1005.5
20240623080456 61 214 0.0 0.0 0.00 0.00 0.00 82 1005.5
20240623075956 61 214 0.0 0.0 0.00 0.00 0.00 81 1005.4
20240623075454 62 214 0.0 0.0 0.00 0.00 0.00 81 1005.4
20240623074953 62 214 0.0 0.0 0.00 0.00 0.00 80 1005.4
20240623074451 62 214 0.0 0.0 0.00 0.00 0.00 80 1005.3
20240623073955 63 214 0.0 0.0 0.00 0.00 0.00 79 1005.4
20240623073951 63 214 0.0 0.0 0.00 0.00 0.00 77 1005.3
20240623072950 63 214 0.0 0.0 0.00 0.00 0.00 76 1005.2
20240623072447 64 214 0.0 0.0 0.00 0.00 0.00 75 1005.2
20240623072443 64 214 0.0 0.0 0.00 0.00 0.00 76 1005.2
20240623071441 65 214 0.0 0.0 0.00 0.00 0.00 75 1005.2
20240623070941 65 214 0.0 0.0 0.00 0.00 0.00 74 1005.1
20240623070441 65 214 0.0 0.0 0.00 0.00 0.00 72 1005.1
20240623065943 66 214 0.0 0.0 0.00 0.00 0.00 71 1005.1
20240623065939 67 214 0.0 0.0 0.00 0.00 0.00 68 1005.1
20240623065544 67 214 0.0 0.0 0.00 0.00 0.00 69 1005.1
20240623065043 67 214 0.0 0.0 0.00 0.00 0.00 67 1005.1
20240623063939 67 214 0.0 0.0 0.00 0.00 0.00 65 1005.1
20240623063439 68 214 0.0 0.0 0.00 0.00 0.00 64 1005.2
20240623062937 68 214 0.0 2.0 0.00 0.00 0.00 63 1005.2
20240623062438 68 214 0.0 2.0 0.00 0.00 0.00 62 1005.2
20240623061937 68 214 0.0 2.0 0.00 0.00 0.00 61 1005.1
20240623061439 69 214 0.0 2.0 0.00 0.00 0.00 61 1005.1
20240623061435 69 214 0.0 2.0 0.00 0.00 0.00 60 1005.0
20240623060438 69 214 1.0 4.0 0.00 0.00 0.00 59 1004.8
20240623060434 69 214 0.0 3.0 0.00 0.00 0.00 61 1004.9
20240623055431 69 214 1.0 4.0 0.00 0.00 0.00 60 1004.8
20240623054936 70 211 1.0 5.0 0.00 0.00 0.00 59 1004.7
20240623054932 70 223 1.0 5.0 0.00 0.00 0.00 59 1004.7
20240623053927 70 183 1.0 3.0 0.00 0.00 0.00 59 1004.7
20240623053429 71 209 1.0 5.0 0.00 0.00 0.00 58 1004.7
20240623053425 71 205 3.0 6.0 0.00 0.00 0.00 56 1004.7
20240623053029 71 231 2.0 6.0 0.00 0.00 0.00 57 1004.7
20240623051923 71 200 2.0 6.0 0.00 0.00 0.00 56 1004.7
20240623051422 72 203 2.0 5.0 0.00 0.00 0.00 56 1004.7
20240623050921 72 170 2.0 4.0 0.00 0.00 0.00 57 1004.7
20240623050415 72 172 2.0 4.0 0.00 0.00 0.00 56 1004.6
20240623045915 72 148 2.0 4.0 0.00 0.00 0.00 55 1004.6
20240623045413 72 149 3.0 6.0 0.00 0.00 0.00 55 1004.6
20240623044914 72 193 3.0 6.0 0.00 0.00 0.00 53 1004.6
20240623044414 72 152 3.0 5.0 0.00 0.00 0.00 53 1004.6
20240623043915 72 154 3.0 5.0 0.00 0.00 0.00 52 1004.5
20240623043911 72 169 3.0 6.0 0.00 0.00 0.00 52 1004.5
20240623042910 72 123 2.0 6.0 0.00 0.00 0.00 52 1004.5
20240623042408 72 149 2.0 7.0 0.00 0.00 0.00 52 1004.4
20240623041909 71 102 2.0 7.0 0.00 0.00 0.00 52 1004.4
20240623041409 71 168 2.0 5.0 0.00 0.00 0.00 53 1004.4
20240623040909 71 212 2.0 4.0 0.00 0.00 0.00 53 1004.4
20240623040407 71 124 2.0 5.0 0.00 0.00 0.00 53 1004.5
20240623035907 71 145 3.0 7.0 0.00 0.00 0.00 52 1004.5
20240623035405 71 155 3.0 7.0 0.00 0.00 0.00 53 1004.5
20240623034905 71 170 2.0 5.0 0.00 0.00 0.00 53 1004.5
20240623034859 72 141 2.0 5.0 0.00 0.00 0.00 53 1004.5
20240623033857 73 155 2.0 6.0 0.00 0.00 0.00 53 1004.4
20240623033357 73 143 2.0 6.0 0.00 0.00 0.00 53 1004.5
20240623032857 74 149 1.0 3.0 0.00 0.00 0.00 53 1004.5
20240623032357 74 160 1.0 3.0 0.00 0.00 0.00 54 1004.4
20240623031857 75 160 1.0 3.0 0.00 0.00 0.00 56 1004.5
20240623031357 75 160 1.0 3.0 0.00 0.00 0.00 55 1004.4
20240623030857 76 160 1.0 3.0 0.00 0.00 0.00 53 1004.4
20240623030356 76 160 1.0 4.0 0.00 0.00 0.00 53 1004.4
20240623025903 77 211 1.0 3.0 0.00 0.00 0.00 51 1004.3
20240623025857 76 160 1.0 4.0 0.00 0.00 0.00 51 1004.3
20240623024858 77 230 2.0 7.0 0.00 0.00 0.00 50 1004.3
20240623024357 78 263 2.0 7.0 0.00 0.00 0.00 50 1004.3
20240623023856 78 218 1.0 6.0 0.00 0.00 0.00 49 1004.2
20240623023357 78 156 1.0 4.0 0.00 0.00 0.00 49 1004.3
20240623022857 77 194 1.0 4.0 0.00 0.00 0.00 51 1004.3
20240623022357 77 191 2.0 5.0 0.00 0.00 0.00 51 1004.3
20240623021901 77 248 1.0 4.0 0.00 0.00 0.00 51 1004.3
20240623021857 77 218 2.0 5.0 0.00 0.00 0.00 50 1004.3
20240623020857 77 186 1.0 3.0 0.00 0.00 0.00 51 1004.4
20240623020356 77 166 1.0 4.0 0.00 0.00 0.00 49 1004.3
20240623015855 77 195 2.0 4.0 0.00 0.00 0.00 49 1004.4
20240623015357 78 210 3.0 6.0 0.00 0.00 0.00 49 1004.4
20240623015353 77 198 2.0 5.0 0.00 0.00 0.00 48 1004.4
20240623014351 78 191 3.0 8.0 0.00 0.00 0.00 49 1004.3
20240623013852 78 212 3.0 8.0 0.00 0.00 0.00 48 1004.4
20240623013848 78 116 2.0 4.0 0.00 0.00 0.00 48 1004.4
20240623012848 78 183 2.0 6.0 0.00 0.00 0.00 48 1004.4
20240623012346 78 231 3.0 8.0 0.00 0.00 0.00 50 1004.5
20240623011840 78 194 3.0 8.0 0.00 0.00 0.00 50 1004.4
20240623011339 78 201 2.0 7.0 0.00 0.00 0.00 48 1004.5
20240623010838 78 226 2.0 4.0 0.00 0.00 0.00 50 1004.5
20240623010338 78 181 2.0 5.0 0.00 0.00 0.00 49 1004.5
20240623005839 77 172 2.0 7.0 0.00 0.00 0.00 52 1004.6
20240623005343 77 215 3.0 6.0 0.00 0.00 0.00 51 1004.6
20240623005338 77 264 3.0 7.0 0.00 0.00 0.00 51 1004.6
20240623004339 77 164 3.0 7.0 0.00 0.00 0.00 51 1004.6
20240623003839 77 189 2.0 8.0 0.00 0.00 0.00 50 1004.7
20240623003339 77 209 3.0 8.0 0.00 0.00 0.00 52 1004.7
20240623002845 77 171 3.0 7.0 0.00 0.00 0.00 51 1004.7
20240623002839 76 168 3.0 7.0 0.00 0.00 0.00 52 1004.7
20240623001839 76 223 2.0 5.0 0.00 0.00 0.00 54 1004.8
20240623001835 76 199 2.0 6.0 0.00 0.00 0.00 51 1004.7
20240623000838 76 62 3.0 7.0 0.00 0.00 0.00 52 1004.8
20240623000834 76 211 3.0 7.0 0.00 0.00 0.00 54 1004.8
20240622235834 76 203 4.0 9.0 0.00 0.00 0.00 54 1004.8
20240622235335 76 235 3.0 9.0 0.00 0.00 0.00 56 1004.9
20240622234835 76 168 2.0 8.0 0.00 0.00 0.00 52 1004.8
20240622234335 76 195 3.0 8.0 0.00 0.00 0.00 56 1004.9
20240622233834 75 261 2.0 7.0 0.00 0.00 0.00 54 1004.9
20240622233334 75 198 3.0 7.0 0.00 0.00 0.00 56 1004.9
20240622232834 75 239 3.0 7.0 0.00 0.00 0.00 55 1005.0
20240622232334 75 174 3.0 6.0 0.00 0.00 0.00 55 1005.0
20240622231834 75 189 2.0 7.0 0.00 0.00 0.00 55 1005.0
20240622231332 75 201 2.0 8.0 0.00 0.00 0.00 55 1005.0
20240622230832 74 226 2.0 8.0 0.00 0.00 0.00 55 1005.1
20240622230332 74 235 2.0 6.0 0.00 0.00 0.00 57 1005.1
20240622225832 74 155 2.0 6.0 0.00 0.00 0.00 54 1005.1
20240622225334 74 217 2.0 6.0 0.00 0.00 0.00 56 1005.1
20240622224837 74 181 2.0 7.0 0.00 0.00 0.00 55 1005.2
20240622224833 74 156 2.0 6.0 0.00 0.00 0.00 57 1005.1
20240622223832 73 222 3.0 7.0 0.00 0.00 0.00 56 1005.2
20240622223333 72 206 3.0 7.0 0.00 0.00 0.00 59 1005.2
20240622223329 73 188 3.0 7.0 0.00 0.00 0.00 57 1005.2
20240622222328 73 197 2.0 7.0 0.00 0.00 0.00 55 1005.3
20240622221827 73 195 2.0 7.0 0.00 0.00 0.00 55 1005.3
20240622221331 72 199 3.0 7.0 0.00 0.00 0.00 57 1005.3
20240622221326 73 208 2.0 6.0 0.00 0.00 0.00 58 1005.3
20240622220326 72 176 3.0 7.0 0.00 0.00 0.00 56 1005.3
20240622215828 72 191 3.0 7.0 0.00 0.00 0.00 56 1005.3
20240622215321 72 215 3.0 8.0 0.00 0.00 0.00 56 1005.4
20240622214818 71 220 3.0 8.0 0.00 0.00 0.00 58 1005.4
20240622214322 71 187 2.0 6.0 0.00 0.00 0.00 56 1005.5
20240622214318 71 199 2.0 6.0 0.00 0.00 0.00 58 1005.4
20240622213318 71 207 3.0 5.0 0.00 0.00 0.00 59 1005.4
20240622212819 71 172 3.0 8.0 0.00 0.00 0.00 57 1005.4
20240622212318 71 196 2.0 8.0 0.00 0.00 0.00 59 1005.5
20240622211822 70 184 2.0 6.0 0.00 0.00 0.00 62 1005.5
20240622211818 71 203 2.0 5.0 0.00 0.00 0.00 57 1005.5
20240622210817 70 166 3.0 6.0 0.00 0.00 0.00 58 1005.6
20240622210317 70 183 3.0 6.0 0.00 0.00 0.00 58 1005.5
20240622205812 70 133 3.0 6.0 0.00 0.00 0.00 57 1005.5
20240622205317 70 165 2.0 6.0 0.00 0.00 0.00 56 1005.6
20240622205313 70 114 2.0 6.0 0.00 0.00 0.00 56 1005.5
20240622204313 70 189 2.0 6.0 0.00 0.00 0.00 59 1005.6
20240622203812 70 166 2.0 6.0 0.00 0.00 0.00 58 1005.6
20240622203312 69 174 2.0 4.0 0.00 0.00 0.00 58 1005.6
20240622202816 68 200 3.0 6.0 0.00 0.00 0.00 60 1005.6
20240622202812 69 213 2.0 6.0 0.00 0.00 0.00 60 1005.6
20240622202418 68 216 2.0 5.0 0.00 0.00 0.00 60 1005.7
20240622201306 68 243 2.0 7.0 0.00 0.00 0.00 59 1005.7
20240622200804 68 189 2.0 7.0 0.00 0.00 0.00 62 1005.7
20240622200304 68 212 3.0 7.0 0.00 0.00 0.00 60 1005.8
20240622195804 68 162 3.0 7.0 0.00 0.00 0.00 60 1005.8
20240622195308 68 167 2.0 6.0 0.00 0.00 0.00 62 1005.8
20240622195306 68 232 2.0 6.0 0.00 0.00 0.00 59 1005.8
20240622194304 67 230 2.0 5.0 0.00 0.00 0.00 64 1005.8
20240622193805 67 148 3.0 7.0 0.00 0.00 0.00 62 1005.8
20240622193304 67 209 2.0 7.0 0.00 0.00 0.00 63 1005.8
20240622192804 67 166 2.0 5.0 0.00 0.00 0.00 64 1005.9
20240622192307 67 169 2.0 5.0 0.00 0.00 0.00 62 1005.9
20240622191808 66 205 2.0 6.0 0.00 0.00 0.00 66 1006.0
20240622191804 67 203 2.0 5.0 0.00 0.00 0.00 66 1006.0
20240622190804 66 199 2.0 6.0 0.00 0.00 0.00 65 1006.0
20240622190308 66 202 2.0 5.0 0.00 0.00 0.00 68 1006.0
20240622190304 66 191 1.0 5.0 0.00 0.00 0.00 66 1006.0
20240622185301 66 176 2.0 5.0 0.00 0.00 0.00 67 1006.1
20240622184807 66 199 1.0 4.0 0.00 0.00 0.00 68 1006.1
20240622184803 66 144 2.0 5.0 0.00 0.00 0.00 67 1006.1
20240622183806 65 206 2.0 5.0 0.00 0.00 0.00 67 1006.1
20240622183802 65 212 1.0 4.0 0.00 0.00 0.00 69 1006.1
20240622182803 64 217 2.0 5.0 0.00 0.00 0.00 68 1006.2
20240622182306 64 165 1.0 4.0 0.00 0.00 0.00 70 1006.3
20240622181802 64 165 1.0 5.0 0.00 0.00 0.00 69 1006.3
20240622181302 64 165 2.0 5.0 0.00 0.00 0.00 70 1006.3
20240622180800 63 165 3.0 8.0 0.00 0.00 0.00 71 1006.2
20240622180306 64 135 3.0 6.0 0.00 0.00 0.00 70 1006.3
20240622180301 64 159 3.0 8.0 0.00 0.00 0.00 70 1006.3
20240622175258 64 111 2.0 6.0 0.00 0.00 0.00 71 1006.4
20240622174758 64 171 2.0 4.0 0.00 0.00 0.00 72 1006.4
20240622174258 64 162 2.0 4.0 0.00 0.00 0.00 70 1006.4